Location: Four Corners
(38.2757°N, 122.4608°W)
Time: 10:15:55
(UTC+00:00)

Okean O Rocket - Pass Details

Date: 08 December 2019
Orbit: 624 x 644 km, 98.2° (Epoch: 26 January)

Event Time Altitude Azimuth Distance (km) Brightness Sun altitude
Rises 01:29:19 0° 187° (S) 2,895 5.4 -7.9°
Reaches altitude 10° 01:31:39 10° 196° (SSW) 1,991 4.7 -8.3°
Maximum altitude 01:35:35 34° 262° (W) 1,029 3.5 -9.0°
Drops below altitude 10° 01:39:34 10° 328° (NNW) 2,001 4.3 -9.8°
Sets 01:41:56 0° 338° (NNW) 2,912 5.0 -10.2°
